Time,TemperatureF,DewpointF,PressureIn,WindDirection,WindDirectionDegrees,WindSpeedMPH,WindSpeedGustMPH,Humidity,HourlyPrecipIn,Conditions,Clouds,dailyrainin,SolarRadiationWatts/m^2,SoftwareType,DateUTC
2013-11-15 05:42:00,64.0,48.0,-100.00,ESE,115,6.0,11.0,57,0.00,,,0.00,0.000000,,2013-11-15 12:42:00,
2013-11-15 05:52:00,64.0,48.0,-100.00,ESE,115,6.0,11.0,57,0.00,,,0.00,0.000000,,2013-11-15 12:52:00,
2013-11-15 06:01:00,64.0,48.0,-100.00,ESE,115,6.0,11.0,57,0.00,,,0.00,0.000000,,2013-11-15 13:01:00,
2013-11-15 06:42:00,64.0,55.0,-100.00,WSW,243,0.0,9.0,73,0.00,,,0.00,0.000000,,2013-11-15 13:42:00,
2013-11-15 06:52:00,64.0,55.0,-100.00,WSW,243,0.0,9.0,73,0.00,,,0.00,0.000000,,2013-11-15 13:52:00,
2013-11-15 07:01:00,64.0,55.0,-100.00,WSW,243,0.0,9.0,73,0.00,,,0.00,0.000000,,2013-11-15 14:01:00,
2013-11-15 07:42:00,66.0,57.0,-100.00,SE,133,4.0,10.0,72,0.00,,,0.00,0.000000,,2013-11-15 14:42:00,
2013-11-15 07:52:00,66.0,57.0,-100.00,SE,133,4.0,10.0,72,0.00,,,0.00,0.000000,,2013-11-15 14:52:00,
2013-11-15 08:02:00,66.0,57.0,-100.00,SE,133,4.0,10.0,72,0.00,,,0.00,0.000000,,2013-11-15 15:02:00,
2013-11-15 08:43:00,63.0,55.0,-100.00,East,94,2.0,5.0,76,0.00,,,0.00,0.000000,,2013-11-15 15:43:00,
2013-11-15 08:53:00,63.0,55.0,-100.00,East,94,2.0,5.0,76,0.00,,,0.00,0.000000,,2013-11-15 15:53:00,
2013-11-15 09:03:00,63.0,55.0,-100.00,East,94,2.0,5.0,76,0.00,,,0.00,0.000000,,2013-11-15 16:03:00,
2013-11-15 09:43:00,64.0,57.0,-100.00,ESE,118,3.0,7.0,79,0.00,,,0.00,30.000000,,2013-11-15 16:43:00,
2013-11-15 09:53:00,64.0,57.0,-100.00,ESE,118,3.0,7.0,79,0.00,,,0.00,30.000000,,2013-11-15 16:53:00,
2013-11-15 10:03:00,64.0,57.0,-100.00,ESE,118,3.0,7.0,79,0.00,,,0.00,30.000000,,2013-11-15 17:03:00,
2013-11-15 10:42:00,68.0,61.0,-100.00,ESE,109,7.0,10.0,77,0.00,,,0.00,94.000000,,2013-11-15 17:42:00,
2013-11-15 10:52:00,68.0,61.0,-100.00,ESE,109,7.0,10.0,77,0.00,,,0.00,94.000000,,2013-11-15 17:52:00,
2013-11-15 11:02:00,68.0,61.0,-100.00,ESE,109,7.0,10.0,77,0.00,,,0.00,94.000000,,2013-11-15 18:02:00,
2013-11-15 11:42:00,69.0,60.0,-100.00,ESE,112,8.0,12.0,73,0.00,,,0.00,269.000000,,2013-11-15 18:42:00,
2013-11-15 11:52:00,69.0,60.0,-100.00,ESE,112,8.0,12.0,73,0.00,,,0.00,269.000000,,2013-11-15 18:52:00,
2013-11-15 12:02:00,69.0,60.0,-100.00,ESE,112,8.0,12.0,73,0.00,,,0.00,269.000000,,2013-11-15 19:02:00,
2013-11-15 12:42:00,76.0,61.0,-100.00,SE,146,8.0,11.0,59,-99.99,,,0.00,536.000000,,2013-11-15 19:42:00,
2013-11-15 13:42:00,82.0,52.0,-100.00,South,170,9.0,16.0,35,0.00,,,0.00,773.000000,,2013-11-15 20:42:00,
2013-11-15 13:52:00,82.0,52.0,-100.00,South,170,9.0,16.0,35,0.00,,,0.00,773.000000,,2013-11-15 20:52:00,
2013-11-15 14:02:00,82.0,52.0,-100.00,South,170,9.0,16.0,35,0.00,,,0.00,773.000000,,2013-11-15 21:02:00,
2013-11-15 14:43:00,84.0,43.0,-100.00,South,172,8.0,15.0,24,0.00,,,0.00,800.000000,,2013-11-15 21:43:00,
2013-11-15 14:54:00,84.0,43.0,-100.00,South,172,8.0,15.0,24,0.00,,,0.00,800.000000,,2013-11-15 21:54:00,
2013-11-15 15:03:00,84.0,43.0,-100.00,South,172,8.0,15.0,24,0.00,,,0.00,800.000000,,2013-11-15 22:03:00,
2013-11-15 15:43:00,87.0,35.0,-100.00,SSW,210,6.0,17.0,16,0.00,,,0.00,734.000000,,2013-11-15 22:43:00,
2013-11-15 17:42:00,79.0,41.0,-100.00,WNW,298,19.0,30.0,26,-99.99,,,0.00,375.000000,,2013-11-16 00:42:00,
2013-11-15 17:52:00,79.0,41.0,-100.00,WNW,298,19.0,30.0,26,-99.99,,,0.00,375.000000,,2013-11-16 00:52:00,
2013-11-15 18:01:00,79.0,41.0,-100.00,WNW,298,19.0,30.0,26,-99.99,,,0.00,375.000000,,2013-11-16 01:01:00,
2013-11-15 18:42:00,74.0,40.0,-100.00,WNW,293,15.0,31.0,29,0.00,,,0.00,151.000000,,2013-11-16 01:42:00,
2013-11-15 18:52:00,74.0,40.0,-100.00,WNW,293,15.0,31.0,29,0.00,,,0.00,151.000000,,2013-11-16 01:52:00,
2013-11-15 19:02:00,74.0,40.0,-100.00,WNW,293,15.0,31.0,29,0.00,,,0.00,151.000000,,2013-11-16 02:02:00,
2013-11-15 19:42:00,70.0,43.0,-100.00,WNW,296,11.0,25.0,37,0.00,,,0.00,15.000000,,2013-11-16 02:42:00,
2013-11-15 19:52:00,70.0,43.0,-100.00,WNW,296,11.0,25.0,37,0.00,,,0.00,15.000000,,2013-11-16 02:52:00,
2013-11-15 20:02:00,70.0,43.0,-100.00,WNW,296,11.0,25.0,37,0.00,,,0.00,15.000000,,2013-11-16 03:02:00,
2013-11-15 20:44:00,69.0,44.0,-100.00,WNW,296,8.0,21.0,41,0.00,,,0.00,0.000000,,2013-11-16 03:44:00,
2013-11-15 20:55:00,69.0,44.0,-100.00,WNW,296,8.0,21.0,41,0.00,,,0.00,0.000000,,2013-11-16 03:55:00,
2013-11-15 21:04:00,69.0,44.0,-100.00,WNW,296,8.0,21.0,41,0.00,,,0.00,0.000000,,2013-11-16 04:04:00,
2013-11-15 21:43:00,67.0,44.0,-100.00,WNW,282,7.0,15.0,43,0.00,,,0.00,0.000000,,2013-11-16 04:43:00,
2013-11-15 21:53:00,67.0,44.0,-100.00,WNW,282,7.0,15.0,43,0.00,,,0.00,0.000000,,2013-11-16 04:53:00,
2013-11-15 22:03:00,67.0,44.0,-100.00,WNW,282,7.0,15.0,43,0.00,,,0.00,0.000000,,2013-11-16 05:03:00,
2013-11-15 22:44:00,64.0,43.0,-100.00,WNW,289,7.0,15.0,46,0.00,,,0.00,0.000000,,2013-11-16 05:44:00,
2013-11-15 22:52:00,64.0,43.0,-100.00,WNW,289,7.0,15.0,46,0.00,,,0.00,0.000000,,2013-11-16 05:52:00,
2013-11-15 23:02:00,64.0,43.0,-100.00,WNW,289,7.0,15.0,46,0.00,,,0.00,0.000000,,2013-11-16 06:02:00,
2013-11-15 23:42:00,65.0,42.0,-100.00,WNW,297,7.0,15.0,43,0.00,,,0.00,0.000000,,2013-11-16 06:42:00,
2013-11-15 23:52:00,65.0,42.0,-100.00,WNW,297,7.0,15.0,43,0.00,,,0.00,0.000000,,2013-11-16 06:52:00,